Change the Weather History Date:

Wednesday, January 25, 2012

  Actual Average Record
Temperature  
Mean Temperature 45 °F -  
Max Temperature 57 °F 59 °F 77 °F (2000)
Min Temperature 33 °F 37 °F 26 °F (1990)
Degree Days  
Heating Degree Days 20    
Moisture  
Dew Point 25 °F    
Average Humidity 47    
Maximum Humidity 75    
Minimum Humidity 27    
Precipitation  
Precipitation 0.00 in - - ()
Sea Level Pressure  
Sea Level Pressure 30.15 in    
Wind  
Wind Speed 4 mph (SE)    
Max Wind Speed 12 mph    
Max Gust Speed -    
Visibility 10 miles    
Events      
Averages and records for this station are not official NWS values.
T = Trace of Precipitation, MM = Missing Value Source: NWS Daily Summary

Daily Weather History Graph

Daily Weather History Graph

Search for Another Location

Airport or City:

Trip Planner

Search our weather history database for the weather conditions in past years. The results will help you decide how hot, cold, wet, or windy it might be!

Date:

Astronomy

Jan. 25, 2012 Rise Set
Actual Time 7:18 AM MST 5:49 PM MST
Civil Twilight 6:52 AM MST 6:15 PM MST
Nautical Twilight 6:23 AM MST 6:44 PM MST
Astronomical Twilight 5:54 AM MST 7:13 PM MST
Moon 8:32 AM MST (1/25) 8:31 PM MST (1/25)
Length of Visible Light 11h 22m
Length of Day
10h 31m
Waxing Crescent, 7% of the Moon is Illuminated
Jan 25
Waxing Crescent
Jan 30
First Quarter
Feb 7
Full
Feb 14
Last Quarter
Feb 21
New

Hourly Weather History & Observations

Time (MST) Temp. Windchill Dew Point Humidity Pressure Visibility Wind Dir Wind Speed Gust Speed Precip Events Conditions
12:56 AM 37.9 °F 31.5 °F 30.0 °F 73% 30.11 in 10.0 mi WSW 9.2 mph - N/A   Clear
1:56 AM 39.9 °F - 28.0 °F 63% 30.11 in 10.0 mi Calm Calm - N/A   Clear
2:56 AM 37.0 °F - 27.0 °F 67% 30.12 in 10.0 mi Calm Calm - N/A   Clear
3:56 AM 37.9 °F 34.4 °F 27.0 °F 65% 30.12 in 10.0 mi ENE 4.6 mph - N/A   Clear
4:56 AM 37.9 °F - 27.0 °F 65% 30.13 in 10.0 mi Calm Calm - N/A   Clear
5:55 AM 35.6 °F - 26.6 °F 70% 30.14 in 10.0 mi Calm Calm - N/A   Mostly Cloudy
6:55 AM 33.8 °F 30.8 °F 26.6 °F 75% 30.18 in 10.0 mi SSE 3.5 mph - N/A   Scattered Clouds
7:55 AM 37.4 °F 33.8 °F 26.6 °F 65% 30.20 in 10.0 mi SE 4.6 mph - N/A   Partly Cloudy
8:55 AM 42.8 °F 41.1 °F 26.6 °F 53% 30.21 in 10.0 mi ESE 3.5 mph - N/A   Partly Cloudy
9:55 AM 46.4 °F 42.9 °F 24.8 °F 43% 30.20 in 10.0 mi ESE 6.9 mph - N/A   Partly Cloudy
10:55 AM 51.8 °F - 24.8 °F 35% 30.19 in 10.0 mi East 11.5 mph - N/A   Partly Cloudy
11:55 AM 53.6 °F - 24.8 °F 33% 30.17 in 10.0 mi ESE 10.4 mph - N/A   Partly Cloudy
12:55 PM 53.6 °F - 24.8 °F 33% 30.14 in 10.0 mi Variable 4.6 mph - N/A   Partly Cloudy
1:55 PM 57.2 °F - 24.8 °F 29% 30.11 in 10.0 mi ESE 9.2 mph - N/A   Scattered Clouds
2:55 PM 57.2 °F - 23.0 °F 27% 30.11 in 10.0 mi Variable 3.5 mph - N/A   Scattered Clouds
3:55 PM 57.2 °F - 23.0 °F 27% 30.10 in 10.0 mi Variable 1.2 mph - N/A   Scattered Clouds
4:55 PM 57.2 °F - 23.0 °F 27% 30.11 in 10.0 mi Variable 3.5 mph - N/A   Scattered Clouds
5:55 PM 53.6 °F - 21.2 °F 28% 30.12 in 10.0 mi Variable 2.3 mph - N/A   Scattered Clouds
6:55 PM 51.8 °F - 21.2 °F 30% 30.16 in 10.0 mi Variable 2.3 mph - N/A   Scattered Clouds
7:55 PM 48.2 °F - 21.2 °F 34% 30.15 in 10.0 mi Variable 3.5 mph - N/A   Partly Cloudy
8:55 PM 46.4 °F - 21.2 °F 37% 30.17 in 10.0 mi Variable 1.2 mph - N/A   Partly Cloudy
9:55 PM 42.8 °F 41.1 °F 23.0 °F 46% 30.18 in 10.0 mi South 3.5 mph - N/A   Partly Cloudy
10:55 PM 46.4 °F 43.5 °F 24.8 °F 43% 30.15 in 10.0 mi Variable 5.8 mph - N/A   Partly Cloudy
11:56 PM 39.9 °F - 24.1 °F 53% 30.16 in 10.0 mi Calm Calm - N/A   Clear